FENGYUN 1C DEB, 37012

Orbit data source: Space-Track

FENGYUN 1C DEB, 37012 is space debris in SSO originally from a launch on Mon, 10 May 1999 UTC launched from the Taiyaun Space Center, China (TSC). Fengyun 1C debris stems from the Chinese weather satellite Fengyun-1C, which was intentionally destroyed by a Chinese anti-satellite missile in 2007. This event dramatically increased the amount of space debris, with thousands of trackable fragments posing hazards to satellites and human spaceflight. The Fengyun 1C debris cloud has become a focal point in discussions about space sustainability and the need for international regulations to prevent the creation of new debris.

Loading next visibility...
Identifier
37012, 1999-025ECU
Orbit
SSO
Country
Flag of CNCN / PRC
Related business
Manufacturer
Unknown
Mission
Spacecraft
Bus & Motor
Unknown
Mass
Unknown
Launch date (UTC)
1999-05-10 (27 years ago)
Launch vehicle
Unknown
Launch site
Taiyaun Space Center, China (TSC)
Object type
Payload
Rocket body
Debris
Shape & HBR
Unknown shape, 0.1 m
Radar Cross Section
Medium (>0.1 m² and <1 m²)

Expand to show TLE details & history
Last TLE update: 1 week ago

TLE from 1 week ago
0 FENGYUN 1C DEB
1 37012U 99025ECU 26231.39160302  .00001594  00000-0  94967-3 0  9993
2 37012  98.5399  78.5323 0191522   0.2115 359.9099 13.99904660624503
Epoch: 2026-08-19T09:23Z
TLE epoch observation values (Epoch: 2026-08-19T09:23:54.500Z)
Latitude
-0.00013°
Longitude
-30.1905°
Altitude
757.712 km
Speed
7.547 km/s
True Right ascension
05h 14m 07s
True Declination
0° 00' 00"
Sunlit
Object was in daylight at epoch
Visualization orbit readout
Latitude
Unknown
Longitude
Unknown
Altitude
Unknown
Speed
Unknown
Apparent Right ascension
Unknown
Apparent Declination
Unknown
Sunlit
N/A
Visualization observer readout
Local Sidereal Time
09:32:17
Azimuth
Unknown
Elevation
Unknown
Doppler factor
Unknown
Orbital elements
Apogee altitude
1,030.527 km
Perigee altitude
752.076 km
Semi-major axis
7,269.438 km
Eccentricity
0.01915
Inclination
98.5399°
RAAN
78.5323°
Arg. of periapsis
0.2115°
True anomaly
359.90636°
Mean anomaly
359.9099°
Eccentric anomaly
359.90814°
Mean motion
3.5018 °/min
Orbital period
102.8 mins
BSTAR
0.00094967
Loading maneuver chart data...
Computing Atmospheric mass density...
Loading historical data...
Loading historical data...
Loading historical data...
Loading historical data...
Loading historical data...
Loading historical data...
Loading historical data...

Documentation

Showing up to 5 results
|